contact:dominique.lefevre@mio.osupytheas.fr, maurice.libes@osupytheas.fr, didier.mallarino@osupytheas.fr
Project:EMSO http://www.emso-fr.org/EMSO-France
Depth: 2436.0 m
Title:EMSO Ligure Ouest : Data MII capteur MICROCAT
DateTime_Computer,Latitude,Longitude,Temperature,Conductivity,Pressure,DateTime_Instrument
DateTime_Computer,Latitude,Longitude,degC,S m-1,dbar,DateTime_Instrument
2023-03-10T00:02:02Z,42.805,6.029,13.3035,4.60120,2470.684,2023-3-10T02:04:39Z
2023-03-10T00:05:05Z,42.805,6.029,13.3041,4.60141,2470.646,2023-3-10T02:07:42Z
2023-03-10T00:08:08Z,42.805,6.029,13.3035,4.60125,2470.67,2023-3-10T02:10:45Z
2023-03-10T00:11:11Z,42.805,6.029,13.3052,4.60128,2470.646,2023-3-10T02:13:48Z
2023-03-10T00:14:15Z,42.805,6.029,13.3039,4.60132,2470.661,2023-3-10T02:16:51Z
2023-03-10T00:17:18Z,42.805,6.029,13.3046,4.60147,2470.646,2023-3-10T02:19:54Z
2023-03-10T00:20:21Z,42.805,6.029,13.3042,4.60126,2470.656,2023-3-10T02:22:57Z
2023-03-10T00:23:24Z,42.805,6.029,13.3042,4.60136,2470.646,2023-3-10T02:26:00Z
2023-03-10T00:26:27Z,42.805,6.029,13.3042,4.60127,2470.637,2023-3-10T02:29:03Z
2023-03-10T00:29:30Z,42.805,6.029,13.3043,4.60132,2470.693,2023-3-10T02:32:06Z
2023-03-10T00:32:33Z,42.805,6.029,13.3045,4.60129,2470.646,2023-3-10T02:35:10Z
2023-03-10T00:35:36Z,42.805,6.029,13.3052,4.60146,2470.67,2023-3-10T02:38:13Z
2023-03-10T00:38:39Z,42.805,6.029,13.3040,4.60155,2470.646,2023-3-10T02:41:16Z
2023-03-10T00:41:42Z,42.805,6.029,13.3040,4.60127,2470.637,2023-3-10T02:44:19Z
2023-03-10T00:44:45Z,42.805,6.029,13.3039,4.60125,2470.67,2023-3-10T02:47:22Z
2023-03-10T00:47:48Z,42.805,6.029,13.3041,4.60137,2470.661,2023-3-10T02:50:25Z
2023-03-10T00:50:51Z,42.805,6.029,13.3040,4.60141,2470.684,2023-3-10T02:53:28Z
2023-03-10T00:53:55Z,42.805,6.029,13.3046,4.60142,2470.61,2023-3-10T02:56:31Z
2023-03-10T00:56:58Z,42.805,6.029,13.3043,4.60144,2470.707,2023-3-10T02:59:34Z
2023-03-10T01:00:01Z,42.805,6.029,13.3036,4.60140,2470.637,2023-3-10T03:02:37Z
2023-03-10T01:03:04Z,42.805,6.029,13.3048,4.60142,2470.661,2023-3-10T03:05:40Z
2023-03-10T01:06:07Z,42.805,6.029,13.3043,4.60125,2470.661,2023-3-10T03:08:43Z
2023-03-10T01:09:10Z,42.805,6.029,13.3039,4.60130,2470.646,2023-3-10T03:11:47Z
2023-03-10T01:12:13Z,42.805,6.029,13.3046,4.60128,2470.6,2023-3-10T03:14:50Z
2023-03-10T01:15:16Z,42.805,6.029,13.3037,4.60140,2470.624,2023-3-10T03:17:53Z
2023-03-10T01:18:19Z,42.805,6.029,13.3036,4.60110,2470.624,2023-3-10T03:20:56Z
2023-03-10T01:21:22Z,42.805,6.029,13.3034,4.60125,2470.624,2023-3-10T03:23:59Z
2023-03-10T01:24:25Z,42.805,6.029,13.3040,4.60118,2470.624,2023-3-10T03:27:02Z
2023-03-10T01:27:28Z,42.805,6.029,13.3043,4.60153,2470.637,2023-3-10T03:30:05Z
2023-03-10T01:30:31Z,42.805,6.029,13.3032,4.60141,2470.614,2023-3-10T03:33:08Z
2023-03-10T01:33:35Z,42.805,6.029,13.3038,4.60114,2470.6,2023-3-10T03:36:11Z
2023-03-10T01:36:38Z,42.805,6.029,13.3048,4.60142,2470.6,2023-3-10T03:39:14Z
2023-03-10T01:39:41Z,42.805,6.029,13.3050,4.60129,2470.624,2023-3-10T03:42:17Z
2023-03-10T01:42:44Z,42.805,6.029,13.3041,4.60147,2470.637,2023-3-10T03:45:20Z
2023-03-10T01:45:47Z,42.805,6.029,13.3041,4.60131,2470.624,2023-3-10T03:48:23Z
2023-03-10T01:48:50Z,42.805,6.029,13.3034,4.60129,2470.624,2023-3-10T03:51:27Z
2023-03-10T01:51:53Z,42.805,6.029,13.3036,4.60122,2470.577,2023-3-10T03:54:30Z
2023-03-10T01:54:56Z,42.805,6.029,13.3040,4.60122,2470.6,2023-3-10T03:57:33Z
2023-03-10T01:57:59Z,42.805,6.029,13.3037,4.60162,2470.646,2023-3-10T04:00:36Z
2023-03-10T02:01:02Z,42.805,6.029,13.3051,4.60143,2470.577,2023-3-10T04:03:39Z
2023-03-10T02:04:05Z,42.805,6.029,13.3034,4.60116,2470.577,2023-3-10T04:06:42Z
2023-03-10T02:07:08Z,42.805,6.029,13.3035,4.60140,2470.6,2023-3-10T04:09:45Z
2023-03-10T02:10:11Z,42.805,6.029,13.3045,4.60130,2470.577,2023-3-10T04:12:48Z
2023-03-10T02:13:15Z,42.805,6.029,13.3056,4.60143,2470.591,2023-3-10T04:15:51Z
2023-03-10T02:16:18Z,42.805,6.029,13.3039,4.60116,2470.646,2023-3-10T04:18:54Z
2023-03-10T02:19:21Z,42.805,6.029,13.3039,4.60143,2470.614,2023-3-10T04:21:57Z
2023-03-10T02:22:24Z,42.805,6.029,13.3049,4.60135,2470.577,2023-3-10T04:25:00Z
2023-03-10T02:25:27Z,42.805,6.029,13.3056,4.60132,2470.6,2023-3-10T04:28:03Z
2023-03-10T02:28:30Z,42.805,6.029,13.3047,4.60137,2470.6,2023-3-10T04:31:07Z
2023-03-10T02:31:33Z,42.805,6.029,13.3048,4.60155,2470.684,2023-3-10T04:34:10Z
2023-03-10T02:34:36Z,42.805,6.029,13.3046,4.60129,2470.614,2023-3-10T04:37:13Z
2023-03-10T02:37:39Z,42.805,6.029,13.3042,4.60128,2470.6,2023-3-10T04:40:16Z
2023-03-10T02:40:42Z,42.805,6.029,13.3037,4.60124,2470.614,2023-3-10T04:43:19Z
2023-03-10T02:43:45Z,42.805,6.029,13.3048,4.60146,2470.591,2023-3-10T04:46:22Z
2023-03-10T02:46:48Z,42.805,6.029,13.3054,4.60138,2470.6,2023-3-10T04:49:25Z
2023-03-10T02:49:51Z,42.805,6.029,13.3051,4.60182,2470.591,2023-3-10T04:52:28Z
2023-03-10T02:52:55Z,42.805,6.029,13.3058,4.60145,2470.591,2023-3-10T04:55:31Z
2023-03-10T02:55:58Z,42.805,6.029,13.3058,4.60137,2470.553,2023-3-10T04:58:34Z
2023-03-10T02:59:01Z,42.805,6.029,13.3061,4.60178,2470.577,2023-3-10T05:01:37Z
2023-03-10T03:02:04Z,42.805,6.029,13.3063,4.60134,2470.637,2023-3-10T05:04:40Z
2023-03-10T03:05:07Z,42.805,6.029,13.3078,4.60141,2470.624,2023-3-10T05:07:44Z
2023-03-10T03:08:10Z,42.805,6.029,13.3080,4.60157,2470.577,2023-3-10T05:10:47Z
2023-03-10T03:11:13Z,42.805,6.029,13.3063,4.60110,2470.6,2023-3-10T05:13:50Z
2023-03-10T03:14:16Z,42.805,6.029,13.3073,4.60142,2470.614,2023-3-10T05:16:53Z
2023-03-10T03:17:19Z,42.805,6.029,13.3084,4.60142,2470.6,2023-3-10T05:19:56Z
2023-03-10T03:20:22Z,42.805,6.029,13.3069,4.60157,2470.577,2023-3-10T05:22:59Z
2023-03-10T03:23:25Z,42.805,6.029,13.3078,4.60182,2470.614,2023-3-10T05:26:02Z
2023-03-10T03:26:28Z,42.805,6.029,13.3074,4.60118,2470.6,2023-3-10T05:29:05Z
2023-03-10T03:29:32Z,42.805,6.029,13.3069,4.60140,2470.614,2023-3-10T05:32:08Z
2023-03-10T03:32:35Z,42.805,6.029,13.3074,4.60131,2470.624,2023-3-10T05:35:11Z
2023-03-10T03:35:38Z,42.805,6.029,13.3066,4.60166,2470.614,2023-3-10T05:38:14Z
2023-03-10T03:38:41Z,42.805,6.029,13.3071,4.60186,2470.637,2023-3-10T05:41:17Z
2023-03-10T03:41:44Z,42.805,6.029,13.3085,4.60169,2470.591,2023-3-10T05:44:20Z
2023-03-10T03:44:47Z,42.805,6.029,13.3050,4.60137,2470.637,2023-3-10T05:47:24Z
2023-03-10T03:47:50Z,42.805,6.029,13.3058,4.60142,2470.6,2023-3-10T05:50:27Z
2023-03-10T03:50:53Z,42.805,6.029,13.3082,4.60135,2470.6,2023-3-10T05:53:30Z
2023-03-10T03:53:56Z,42.805,6.029,13.3073,4.60144,2470.614,2023-3-10T05:56:33Z
2023-03-10T03:56:59Z,42.805,6.029,13.3072,4.60158,2470.614,2023-3-10T05:59:36Z
2023-03-10T04:00:02Z,42.805,6.029,13.3071,4.60128,2470.577,2023-3-10T06:02:39Z
2023-03-10T04:03:05Z,42.805,6.029,13.3088,4.60147,2470.577,2023-3-10T06:05:42Z
2023-03-10T04:06:08Z,42.805,6.029,13.3104,4.60114,2470.591,2023-3-10T06:08:45Z
2023-03-10T04:09:12Z,42.805,6.029,13.3079,4.60180,2470.6,2023-3-10T06:11:48Z
2023-03-10T04:12:15Z,42.805,6.029,13.3077,4.60144,2470.614,2023-3-10T06:14:51Z
2023-03-10T04:15:18Z,42.805,6.029,13.3069,4.60134,2470.6,2023-3-10T06:17:54Z
2023-03-10T04:18:21Z,42.805,6.029,13.3046,4.60129,2470.6,2023-3-10T06:20:57Z
2023-03-10T04:21:24Z,42.805,6.029,13.3061,4.60144,2470.6,2023-3-10T06:24:01Z
2023-03-10T04:24:27Z,42.805,6.029,13.3075,4.60176,2470.614,2023-3-10T06:27:04Z
2023-03-10T04:27:30Z,42.805,6.029,13.3076,4.60181,2470.6,2023-3-10T06:30:07Z
2023-03-10T04:30:33Z,42.805,6.029,13.3091,4.60123,2470.6,2023-3-10T06:33:10Z
2023-03-10T04:33:36Z,42.805,6.029,13.3082,4.60145,2470.6,2023-3-10T06:36:13Z
2023-03-10T04:36:39Z,42.805,6.029,13.3068,4.60161,2470.661,2023-3-10T06:39:16Z
2023-03-10T04:39:42Z,42.805,6.029,13.3090,4.60188,2470.646,2023-3-10T06:42:19Z
2023-03-10T04:42:45Z,42.805,6.029,13.3061,4.60180,2470.614,2023-3-10T06:45:22Z
2023-03-10T04:45:49Z,42.805,6.029,13.3086,4.60144,2470.646,2023-3-10T06:48:25Z
2023-03-10T04:48:52Z,42.805,6.029,13.3102,4.60135,2470.637,2023-3-10T06:51:28Z
2023-03-10T04:51:55Z,42.805,6.029,13.3086,4.60144,2470.637,2023-3-10T06:54:31Z
2023-03-10T04:54:58Z,42.805,6.029,13.3103,4.60204,2470.614,2023-3-10T06:57:34Z
2023-03-10T04:58:01Z,42.805,6.029,13.3083,4.60144,2470.651,2023-3-10T07:00:38Z
2023-03-10T05:01:04Z,42.805,6.029,13.3098,4.60150,2470.614,2023-3-10T07:03:41Z
2023-03-10T05:04:07Z,42.805,6.029,13.3084,4.60163,2470.637,2023-3-10T07:06:44Z
2023-03-10T05:07:10Z,42.805,6.029,13.3109,4.60166,2470.624,2023-3-10T07:09:47Z
2023-03-10T05:10:13Z,42.805,6.029,13.3076,4.60124,2470.6,2023-3-10T07:12:50Z
2023-03-10T05:13:16Z,42.805,6.029,13.3062,4.60134,2470.661,2023-3-10T07:15:53Z
2023-03-10T05:16:19Z,42.805,6.029,13.3091,4.60164,2470.661,2023-3-10T07:18:56Z
2023-03-10T05:19:22Z,42.805,6.029,13.3048,4.60151,2470.646,2023-3-10T07:21:59Z
2023-03-10T05:22:26Z,42.805,6.029,13.3077,4.60158,2470.67,2023-3-10T07:25:02Z
2023-03-10T05:25:29Z,42.805,6.029,13.3075,4.60185,2470.646,2023-3-10T07:28:05Z
2023-03-10T05:28:32Z,42.805,6.029,13.3091,4.60151,2470.707,2023-3-10T07:31:08Z
2023-03-10T05:31:35Z,42.805,6.029,13.3074,4.60132,2470.646,2023-3-10T07:34:11Z
2023-03-10T05:34:38Z,42.805,6.029,13.3073,4.60137,2470.684,2023-3-10T07:37:15Z
2023-03-10T05:37:41Z,42.805,6.029,13.3080,4.60164,2470.684,2023-3-10T07:40:18Z
2023-03-10T05:40:44Z,42.805,6.029,13.3069,4.60166,2470.67,2023-3-10T07:43:21Z
2023-03-10T05:43:47Z,42.805,6.029,13.3077,4.60160,2470.661,2023-3-10T07:46:24Z
2023-03-10T05:46:50Z,42.805,6.029,13.3085,4.60176,2470.684,2023-3-10T07:49:27Z
2023-03-10T05:49:53Z,42.805,6.029,13.3109,4.60139,2470.646,2023-3-10T07:52:30Z
2023-03-10T05:52:56Z,42.805,6.029,13.3108,4.60190,2470.707,2023-3-10T07:55:33Z
2023-03-10T05:55:59Z,42.805,6.029,13.3106,4.60162,2470.707,2023-3-10T07:58:36Z
2023-03-10T05:59:02Z,42.805,6.029,13.3098,4.60165,2470.684,2023-3-10T08:01:39Z
2023-03-10T06:02:06Z,42.805,6.029,13.3104,4.60173,2470.693,2023-3-10T08:04:42Z
2023-03-10T06:05:09Z,42.805,6.029,13.3107,4.60148,2470.684,2023-3-10T08:07:45Z
2023-03-10T06:08:12Z,42.805,6.029,13.3087,4.60166,2470.707,2023-3-10T08:10:48Z
2023-03-10T06:11:15Z,42.805,6.029,13.3082,4.60179,2470.717,2023-3-10T08:13:51Z
2023-03-10T06:14:18Z,42.805,6.029,13.3085,4.60148,2470.693,2023-3-10T08:16:55Z
2023-03-10T06:17:21Z,42.805,6.029,13.3085,4.60137,2470.73,2023-3-10T08:19:58Z
2023-03-10T06:20:24Z,42.805,6.029,13.3072,4.60129,2470.717,2023-3-10T08:23:01Z
2023-03-10T06:23:27Z,42.805,6.029,13.3090,4.60165,2470.679,2023-3-10T08:26:04Z
2023-03-10T06:26:30Z,42.805,6.029,13.3039,4.60137,2470.73,2023-3-10T08:29:07Z
2023-03-10T06:29:33Z,42.805,6.029,13.3055,4.60165,2470.74,2023-3-10T08:32:10Z
2023-03-10T06:32:36Z,42.805,6.029,13.3069,4.60136,2470.73,2023-3-10T08:35:13Z
2023-03-10T06:35:39Z,42.805,6.029,13.3070,4.60170,2470.74,2023-3-10T08:38:16Z
2023-03-10T06:38:42Z,42.805,6.029,13.3078,4.60151,2470.754,2023-3-10T08:41:19Z
2023-03-10T06:41:46Z,42.805,6.029,13.3099,4.60160,2470.74,2023-3-10T08:44:22Z
2023-03-10T06:44:49Z,42.805,6.029,13.3091,4.60220,2470.74,2023-3-10T08:47:25Z
2023-03-10T06:47:52Z,42.805,6.029,13.3070,4.60163,2470.754,2023-3-10T08:50:28Z
2023-03-10T06:50:55Z,42.805,6.029,13.3087,4.60165,2470.8,2023-3-10T08:53:32Z
2023-03-10T06:53:58Z,42.805,6.029,13.3064,4.60175,2470.763,2023-3-10T08:56:35Z
2023-03-10T06:57:01Z,42.805,6.029,13.3079,4.60171,2470.73,2023-3-10T08:59:38Z
2023-03-10T07:00:04Z,42.805,6.029,13.3089,4.60227,2470.777,2023-3-10T09:02:41Z
2023-03-10T07:03:07Z,42.805,6.029,13.3086,4.60174,2470.8,2023-3-10T09:05:44Z
2023-03-10T07:06:10Z,42.805,6.029,13.3106,4.60170,2470.763,2023-3-10T09:08:47Z
2023-03-10T07:09:13Z,42.805,6.029,13.3109,4.60162,2470.763,2023-3-10T09:11:50Z
2023-03-10T07:12:16Z,42.805,6.029,13.3094,4.60164,2470.777,2023-3-10T09:14:53Z
2023-03-10T07:15:19Z,42.805,6.029,13.3091,4.60162,2470.763,2023-3-10T09:17:56Z
2023-03-10T07:18:23Z,42.805,6.029,13.3115,4.60177,2470.777,2023-3-10T09:20:59Z
2023-03-10T07:21:26Z,42.805,6.029,13.3085,4.60184,2470.787,2023-3-10T09:24:02Z
2023-03-10T07:24:29Z,42.805,6.029,13.3074,4.60162,2470.763,2023-3-10T09:27:05Z
2023-03-10T07:27:32Z,42.805,6.029,13.3096,4.60174,2470.787,2023-3-10T09:30:08Z
2023-03-10T07:30:35Z,42.805,6.029,13.3097,4.60169,2470.787,2023-3-10T09:33:12Z
2023-03-10T07:33:38Z,42.805,6.029,13.3107,4.60148,2470.777,2023-3-10T09:36:15Z
2023-03-10T07:36:41Z,42.805,6.029,13.3090,4.60148,2470.787,2023-3-10T09:39:18Z
2023-03-10T07:39:44Z,42.805,6.029,13.3101,4.60136,2470.847,2023-3-10T09:42:21Z
2023-03-10T07:42:47Z,42.805,6.029,13.3106,4.60122,2470.81,2023-3-10T09:45:24Z
2023-03-10T07:45:50Z,42.805,6.029,13.3054,4.60179,2470.824,2023-3-10T09:48:27Z
2023-03-10T07:48:53Z,42.805,6.029,13.3074,4.60139,2470.824,2023-3-10T09:51:30Z
2023-03-10T07:51:56Z,42.805,6.029,13.3082,4.60156,2470.81,2023-3-10T09:54:33Z
2023-03-10T07:54:59Z,42.805,6.029,13.3082,4.60200,2470.81,2023-3-10T09:57:36Z
2023-03-10T07:58:03Z,42.805,6.029,13.3098,4.60143,2470.824,2023-3-10T10:00:39Z
2023-03-10T08:01:06Z,42.805,6.029,13.3086,4.60166,2470.847,2023-3-10T10:03:42Z
2023-03-10T08:04:09Z,42.805,6.029,13.3081,4.60167,2470.787,2023-3-10T10:06:45Z
2023-03-10T08:07:12Z,42.805,6.029,13.3083,4.60198,2470.81,2023-3-10T10:09:49Z
2023-03-10T08:10:15Z,42.805,6.029,13.3099,4.60178,2470.81,2023-3-10T10:12:52Z
2023-03-10T08:13:18Z,42.805,6.029,13.3089,4.60155,2470.81,2023-3-10T10:15:55Z
2023-03-10T08:16:21Z,42.805,6.029,13.3104,4.60158,2470.8,2023-3-10T10:18:58Z
2023-03-10T08:19:24Z,42.805,6.029,13.3090,4.60156,2470.824,2023-3-10T10:22:01Z
2023-03-10T08:22:27Z,42.805,6.029,13.3098,4.60143,2470.8,2023-3-10T10:25:04Z
2023-03-10T08:25:30Z,42.805,6.029,13.3094,4.60184,2470.8,2023-3-10T10:28:07Z
2023-03-10T08:28:33Z,42.805,6.029,13.3066,4.60147,2470.824,2023-3-10T10:31:10Z
2023-03-10T08:31:36Z,42.805,6.029,13.3070,4.60157,2470.81,2023-3-10T10:34:13Z
2023-03-10T08:34:40Z,42.805,6.029,13.3054,4.60158,2470.824,2023-3-10T10:37:16Z
2023-03-10T08:37:43Z,42.805,6.029,13.3059,4.60181,2470.824,2023-3-10T10:40:19Z
2023-03-10T08:40:46Z,42.805,6.029,13.3059,4.60132,2470.833,2023-3-10T10:43:22Z
2023-03-10T08:43:49Z,42.805,6.029,13.3073,4.60152,2470.824,2023-3-10T10:46:26Z
2023-03-10T08:46:52Z,42.805,6.029,13.3098,4.60137,2470.787,2023-3-10T10:49:29Z
2023-03-10T08:49:55Z,42.805,6.029,13.3089,4.60110,2470.833,2023-3-10T10:52:32Z
2023-03-10T08:52:58Z,42.805,6.029,13.3095,4.60142,2470.8,2023-3-10T10:55:35Z
2023-03-10T08:56:01Z,42.805,6.029,13.3080,4.60131,2470.81,2023-3-10T10:58:38Z
2023-03-10T08:59:04Z,42.805,6.029,13.3096,4.60222,2470.81,2023-3-10T11:01:41Z
2023-03-10T09:02:07Z,42.805,6.029,13.3067,4.60173,2470.824,2023-3-10T11:04:44Z
2023-03-10T09:05:10Z,42.805,6.029,13.3075,4.60158,2470.833,2023-3-10T11:07:47Z
2023-03-10T09:08:13Z,42.805,6.029,13.3069,4.60139,2470.833,2023-3-10T11:10:50Z
2023-03-10T09:11:17Z,42.805,6.029,13.3078,4.60139,2470.81,2023-3-10T11:13:53Z
2023-03-10T09:14:20Z,42.805,6.029,13.3082,4.60172,2470.81,2023-3-10T11:16:56Z
2023-03-10T09:17:23Z,42.805,6.029,13.3063,4.60208,2470.8,2023-3-10T11:20:00Z
2023-03-10T09:20:26Z,42.805,6.029,13.3076,4.60144,2470.833,2023-3-10T11:23:03Z
2023-03-10T09:23:29Z,42.805,6.029,13.3058,4.60189,2470.81,2023-3-10T11:26:06Z
2023-03-10T09:26:32Z,42.805,6.029,13.3093,4.60160,2470.787,2023-3-10T11:29:09Z
2023-03-10T09:29:35Z,42.805,6.029,13.3090,4.60194,2470.787,2023-3-10T11:32:12Z
2023-03-10T09:32:38Z,42.805,6.029,13.3051,4.60173,2470.787,2023-3-10T11:35:15Z
2023-03-10T09:35:41Z,42.805,6.029,13.3086,4.60150,2470.787,2023-3-10T11:38:18Z
2023-03-10T09:38:44Z,42.805,6.029,13.3056,4.60186,2470.8,2023-3-10T11:41:21Z
2023-03-10T09:41:47Z,42.805,6.029,13.3089,4.60192,2470.81,2023-3-10T11:44:24Z
2023-03-10T09:44:51Z,42.805,6.029,13.3111,4.60152,2470.81,2023-3-10T11:47:27Z
2023-03-10T09:47:54Z,42.805,6.029,13.3079,4.60132,2470.81,2023-3-10T11:50:30Z
2023-03-10T09:50:57Z,42.805,6.029,13.3073,4.60182,2470.787,2023-3-10T11:53:33Z
2023-03-10T09:54:00Z,42.805,6.029,13.3090,4.60170,2470.8,2023-3-10T11:56:37Z
2023-03-10T09:57:03Z,42.805,6.029,13.3063,4.60173,2470.787,2023-3-10T11:59:40Z
2023-03-10T10:00:06Z,42.805,6.029,13.3085,4.60162,2470.8,2023-3-10T12:02:43Z
2023-03-10T10:03:09Z,42.805,6.029,13.3069,4.60152,2470.787,2023-3-10T12:05:46Z
2023-03-10T10:06:12Z,42.805,6.029,13.3057,4.60182,2470.787,2023-3-10T12:08:49Z
2023-03-10T10:09:15Z,42.805,6.029,13.3096,4.60228,2470.81,2023-3-10T12:11:52Z
2023-03-10T10:12:18Z,42.805,6.029,13.3085,4.60160,2470.796,2023-3-10T12:14:55Z
2023-03-10T10:15:21Z,42.805,6.029,13.3079,4.60152,2470.824,2023-3-10T12:17:58Z
2023-03-10T10:18:24Z,42.805,6.029,13.3083,4.60189,2470.787,2023-3-10T12:21:01Z
2023-03-10T10:21:28Z,42.805,6.029,13.3052,4.60204,2470.787,2023-3-10T12:24:04Z
2023-03-10T10:24:31Z,42.805,6.029,13.3093,4.60193,2470.787,2023-3-10T12:27:07Z
2023-03-10T10:27:34Z,42.805,6.029,13.3096,4.60178,2470.8,2023-3-10T12:30:10Z
2023-03-10T10:30:37Z,42.805,6.029,13.3079,4.60185,2470.787,2023-3-10T12:33:14Z
2023-03-10T10:33:40Z,42.805,6.029,13.3082,4.60185,2470.777,2023-3-10T12:36:17Z
2023-03-10T10:36:43Z,42.805,6.029,13.3094,4.60160,2470.787,2023-3-10T12:39:20Z
2023-03-10T10:39:46Z,42.805,6.029,13.3082,4.60163,2470.787,2023-3-10T12:42:23Z
2023-03-10T10:42:49Z,42.805,6.029,13.3101,4.60162,2470.763,2023-3-10T12:45:26Z
2023-03-10T10:45:52Z,42.805,6.029,13.3119,4.60145,2470.787,2023-3-10T12:48:29Z
2023-03-10T10:48:55Z,42.805,6.029,13.3088,4.60162,2470.8,2023-3-10T12:51:32Z
2023-03-10T10:51:58Z,42.805,6.029,13.3082,4.60135,2470.777,2023-3-10T12:54:35Z
2023-03-10T10:55:01Z,42.805,6.029,13.3104,4.60088,2470.763,2023-3-10T12:57:38Z
2023-03-10T10:58:05Z,42.805,6.029,13.3072,4.60132,2470.74,2023-3-10T13:00:41Z
2023-03-10T11:01:08Z,42.805,6.029,13.3060,4.60146,2470.74,2023-3-10T13:03:44Z
2023-03-10T11:04:11Z,42.805,6.029,13.3047,4.60178,2470.777,2023-3-10T13:06:47Z
2023-03-10T11:07:14Z,42.805,6.029,13.3056,4.60125,2470.754,2023-3-10T13:09:51Z
2023-03-10T11:10:17Z,42.805,6.029,13.3070,4.60122,2470.754,2023-3-10T13:12:54Z
2023-03-10T11:13:20Z,42.805,6.029,13.3070,4.60122,2470.763,2023-3-10T13:15:57Z
2023-03-10T11:16:23Z,42.805,6.029,13.3073,4.60122,2470.754,2023-3-10T13:19:00Z
2023-03-10T11:19:26Z,42.805,6.029,13.3036,4.60110,2470.754,2023-3-10T13:22:03Z
2023-03-10T11:22:29Z,42.805,6.029,13.3040,4.60210,2470.754,2023-3-10T13:25:06Z
2023-03-10T11:25:32Z,42.805,6.029,13.3063,4.60165,2470.74,2023-3-10T13:28:09Z
2023-03-10T11:28:35Z,42.805,6.029,13.3069,4.60155,2470.754,2023-3-10T13:31:12Z
2023-03-10T11:31:38Z,42.805,6.029,13.3076,4.60152,2470.74,2023-3-10T13:34:15Z
2023-03-10T11:34:41Z,42.805,6.029,13.3081,4.60153,2470.73,2023-3-10T13:37:18Z
2023-03-10T11:37:45Z,42.805,6.029,13.3081,4.60185,2470.693,2023-3-10T13:40:21Z
2023-03-10T11:40:48Z,42.805,6.029,13.3071,4.60202,2470.754,2023-3-10T13:43:24Z
2023-03-10T11:43:51Z,42.805,6.029,13.3082,4.60101,2470.777,2023-3-10T13:46:28Z
2023-03-10T11:46:54Z,42.805,6.029,13.3064,4.60137,2470.754,2023-3-10T13:49:31Z
2023-03-10T11:49:57Z,42.805,6.029,13.3066,4.60122,2470.717,2023-3-10T13:52:34Z
2023-03-10T11:53:00Z,42.805,6.029,13.3064,4.60140,2470.717,2023-3-10T13:55:37Z
2023-03-10T11:56:03Z,42.805,6.029,13.3069,4.60129,2470.707,2023-3-10T13:58:40Z
2023-03-10T11:59:06Z,42.805,6.029,13.3038,4.60125,2470.73,2023-3-10T14:01:43Z
2023-03-10T12:02:09Z,42.805,6.029,13.3067,4.60146,2470.693,2023-3-10T14:04:46Z
2023-03-10T12:05:12Z,42.805,6.029,13.3083,4.60194,2470.693,2023-3-10T14:07:49Z
2023-03-10T12:08:15Z,42.805,6.029,13.3092,4.60155,2470.717,2023-3-10T14:10:52Z
2023-03-10T12:11:19Z,42.805,6.029,13.3106,4.60150,2470.707,2023-3-10T14:13:55Z
2023-03-10T12:14:22Z,42.805,6.029,13.3066,4.60241,2470.67,2023-3-10T14:16:58Z
2023-03-10T12:17:25Z,42.805,6.029,13.3071,4.60210,2470.707,2023-3-10T14:20:01Z
2023-03-10T12:20:28Z,42.805,6.029,13.3103,4.60172,2470.717,2023-3-10T14:23:05Z
2023-03-10T12:23:31Z,42.805,6.029,13.3071,4.60135,2470.67,2023-3-10T14:26:08Z
2023-03-10T12:26:34Z,42.805,6.029,13.3083,4.60158,2470.693,2023-3-10T14:29:11Z
2023-03-10T12:29:37Z,42.805,6.029,13.3087,4.60148,2470.693,2023-3-10T14:32:14Z
2023-03-10T12:32:40Z,42.805,6.029,13.3048,4.60117,2470.684,2023-3-10T14:35:17Z
2023-03-10T12:35:43Z,42.805,6.029,13.3059,4.60137,2470.67,2023-3-10T14:38:20Z
2023-03-10T12:38:46Z,42.805,6.029,13.3067,4.60122,2470.693,2023-3-10T14:41:23Z
2023-03-10T12:41:49Z,42.805,6.029,13.3065,4.60096,2470.67,2023-3-10T14:44:26Z
2023-03-10T12:44:52Z,42.805,6.029,13.3072,4.60107,2470.67,2023-3-10T14:47:29Z
2023-03-10T12:47:56Z,42.805,6.029,13.3046,4.60132,2470.646,2023-3-10T14:50:32Z
2023-03-10T12:50:59Z,42.805,6.029,13.3059,4.60134,2470.661,2023-3-10T14:53:35Z
2023-03-10T12:54:02Z,42.805,6.029,13.3073,4.60181,2470.661,2023-3-10T14:56:39Z
2023-03-10T12:57:05Z,42.805,6.029,13.3096,4.60162,2470.67,2023-3-10T14:59:42Z
2023-03-10T13:00:08Z,42.805,6.029,13.3070,4.60144,2470.67,2023-3-10T15:02:45Z
2023-03-10T13:03:11Z,42.805,6.029,13.3076,4.60155,2470.646,2023-3-10T15:05:48Z
2023-03-10T13:06:14Z,42.805,6.029,13.3069,4.60173,2470.646,2023-3-10T15:08:51Z
2023-03-10T13:09:17Z,42.805,6.029,13.3045,4.60190,2470.67,2023-3-10T15:11:54Z
2023-03-10T13:12:20Z,42.805,6.029,13.3070,4.60173,2470.646,2023-3-10T15:14:57Z
2023-03-10T13:15:23Z,42.805,6.029,13.3076,4.60188,2470.684,2023-3-10T15:18:00Z
2023-03-10T13:18:26Z,42.805,6.029,13.3107,4.60173,2470.637,2023-3-10T15:21:03Z
2023-03-10T13:21:29Z,42.805,6.029,13.3047,4.60160,2470.646,2023-3-10T15:24:06Z
2023-03-10T13:24:33Z,42.805,6.029,13.3063,4.60187,2470.661,2023-3-10T15:27:09Z
2023-03-10T13:27:36Z,42.805,6.029,13.3084,4.60165,2470.637,2023-3-10T15:30:12Z
2023-03-10T13:30:39Z,42.805,6.029,13.3066,4.60171,2470.637,2023-3-10T15:33:16Z
2023-03-10T13:33:42Z,42.805,6.029,13.3088,4.60139,2470.6,2023-3-10T15:36:19Z
2023-03-10T13:36:45Z,42.805,6.029,13.3050,4.60183,2470.637,2023-3-10T15:39:22Z
2023-03-10T13:39:48Z,42.805,6.029,13.3078,4.60191,2470.646,2023-3-10T15:42:25Z
2023-03-10T13:42:51Z,42.805,6.029,13.3075,4.60140,2470.646,2023-3-10T15:45:28Z
2023-03-10T13:45:54Z,42.805,6.029,13.3044,4.60167,2470.637,2023-3-10T15:48:31Z
2023-03-10T13:48:57Z,42.805,6.029,13.3046,4.60168,2470.661,2023-3-10T15:51:34Z
2023-03-10T13:52:00Z,42.805,6.029,13.3074,4.60161,2470.614,2023-3-10T15:54:37Z
2023-03-10T13:55:03Z,42.805,6.029,13.3035,4.60170,2470.624,2023-3-10T15:57:40Z
2023-03-10T13:58:06Z,42.805,6.029,13.3068,4.60143,2470.6,2023-3-10T16:00:43Z
2023-03-10T14:01:10Z,42.805,6.029,13.3058,4.60166,2470.624,2023-3-10T16:03:46Z
2023-03-10T14:04:13Z,42.805,6.029,13.3073,4.60151,2470.624,2023-3-10T16:06:49Z
2023-03-10T14:07:16Z,42.805,6.029,13.3070,4.60149,2470.6,2023-3-10T16:09:53Z
2023-03-10T14:10:19Z,42.805,6.029,13.3057,4.60150,2470.637,2023-3-10T16:12:56Z
2023-03-10T14:13:22Z,42.805,6.029,13.3060,4.60157,2470.624,2023-3-10T16:15:59Z
2023-03-10T14:16:25Z,42.805,6.029,13.3081,4.60167,2470.591,2023-3-10T16:19:02Z
2023-03-10T14:19:28Z,42.805,6.029,13.3048,4.60185,2470.614,2023-3-10T16:22:05Z
2023-03-10T14:22:31Z,42.805,6.029,13.3039,4.60138,2470.6,2023-3-10T16:25:08Z
2023-03-10T14:25:34Z,42.805,6.029,13.3041,4.60115,2470.637,2023-3-10T16:28:11Z
2023-03-10T14:28:37Z,42.805,6.029,13.3056,4.60134,2470.624,2023-3-10T16:31:14Z
2023-03-10T14:31:40Z,42.805,6.029,13.3056,4.60111,2470.577,2023-3-10T16:34:17Z
2023-03-10T14:34:43Z,42.805,6.029,13.3041,4.60115,2470.624,2023-3-10T16:37:20Z
2023-03-10T14:37:47Z,42.805,6.029,13.3076,4.60157,2470.591,2023-3-10T16:40:23Z
2023-03-10T14:40:50Z,42.805,6.029,13.3050,4.60144,2470.637,2023-3-10T16:43:26Z
2023-03-10T14:43:53Z,42.805,6.029,13.3084,4.60195,2470.6,2023-3-10T16:46:30Z
2023-03-10T14:46:56Z,42.805,6.029,13.3063,4.60151,2470.624,2023-3-10T16:49:33Z
2023-03-10T14:49:59Z,42.805,6.029,13.3061,4.60146,2470.624,2023-3-10T16:52:36Z
2023-03-10T14:53:02Z,42.805,6.029,13.3061,4.60157,2470.6,2023-3-10T16:55:39Z
2023-03-10T14:56:05Z,42.805,6.029,13.3053,4.60156,2470.577,2023-3-10T16:58:42Z
2023-03-10T14:59:08Z,42.805,6.029,13.3063,4.60137,2470.614,2023-3-10T17:01:45Z
2023-03-10T15:02:11Z,42.805,6.029,13.3058,4.60161,2470.6,2023-3-10T17:04:48Z
2023-03-10T15:05:14Z,42.805,6.029,13.3063,4.60129,2470.614,2023-3-10T17:07:51Z
2023-03-10T15:08:17Z,42.805,6.029,13.3051,4.60158,2470.637,2023-3-10T17:10:54Z
2023-03-10T15:11:20Z,42.805,6.029,13.3059,4.60160,2470.591,2023-3-10T17:13:57Z
2023-03-10T15:14:24Z,42.805,6.029,13.3060,4.60186,2470.577,2023-3-10T17:17:00Z